Weather History for Charleston, WV

Change the Weather History Date:

Monday, February 10, 2014

  Actual Average Record
Temperature  
Mean Temperature 23 °F 37 °F  
Max Temperature 29 °F 45 °F 73 °F (1976)
Min Temperature 17 °F 28 °F 2 °F (1975)
Degree Days  
Heating Degree Days 42 28  
Month to date heating degree days 330 291  
Since 1 July heating degree days 3232 2979  
Cooling Degree Days 0 0  
Month to date cooling degree days 0 0  
Year to date cooling degree days 0 0  
Moisture  
Dew Point 16 °F    
Average Humidity 74    
Maximum Humidity 92    
Minimum Humidity 55    
Precipitation  
Precipitation 0.03 in 0.11 in 1.08 in (1946)
Month to date precipitation 2.58 1.08  
Year to date precipitation 5.08 4.08  
Snow  
Snow 0.60 in - - ()
Month to date snowfall 3.4  
Since 1 September snowfall 27.2  
Snow Depth 1.00 in    
Sea Level Pressure  
Sea Level Pressure 30.26 in    
Wind  
Wind Speed 4 mph (NW)    
Max Wind Speed 10 mph    
Max Gust Speed 14 mph    
Visibility 8 miles    
Events Snow    
T = Trace of Precipitation, MM = Missing Value Source: NWS Daily Summary

Daily Weather History Graph

Daily Weather History Graph

Search for Another Location

Airport:

Trip Planner

Search our weather history database for the weather conditions in past years. The results will help you decide how hot, cold, wet, or windy it might be!

Date:

Astronomy

Feb. 10, 2014 Rise Set
Actual Time 7:22 AM EST 5:59 PM EST
Civil Twilight 6:55 AM EST 6:26 PM EST
Nautical Twilight 6:24 AM EST 6:57 PM EST
Astronomical Twilight 5:53 AM EST 7:28 PM EST
Moon 2:28 PM EST (2/10) 4:13 AM EST (2/10)
Length of Visible Light 11h 31m
Length of Day
10h 36m
Waxing Gibbous, 84% of the Moon is Illuminated
Feb 10
Waxing Gibbous
Feb 14
Full
Feb 22
Last Quarter
Mar 1
New
Mar 8
First Quarter

Hourly Weather History & Observations

Time (EST) Temp. Windchill Dew Point Humidity Pressure Visibility Wind Dir Wind Speed Gust Speed Precip Events Conditions
12:08 AM 27.0 °F - 25.0 °F 92% 30.17 in 4.0 mi Calm Calm - 0.01 in Snow Light Snow
12:21 AM 27.0 °F 21.6 °F 25.0 °F 92% 30.17 in 2.0 mi Variable 4.6 mph - 0.01 in Snow Light Snow
12:38 AM 26.1 °F 19.4 °F 25.0 °F 96% 30.17 in 2.0 mi NNW 5.8 mph - 0.02 in Snow Light Snow
12:54 AM 26.1 °F 19.4 °F 24.1 °F 92% 30.20 in 2.0 mi NW 5.8 mph - 0.02 in Snow Light Snow
1:54 AM 25.0 °F 17.1 °F 23.0 °F 92% 30.20 in 2.0 mi NW 6.9 mph - 0.01 in Snow Light Snow
2:54 AM 25.0 °F 19.3 °F 21.9 °F 88% 30.20 in 2.0 mi NNW 4.6 mph - 0.00 in Snow Light Snow
3:54 AM 24.1 °F 16.0 °F 21.9 °F 91% 30.20 in 6.0 mi NW 6.9 mph - 0.00 in Snow Light Snow
4:45 AM 24.1 °F 16.0 °F 19.9 °F 84% 30.17 in 8.0 mi WNW 6.9 mph - 0.00 in Snow Light Snow
4:54 AM 24.1 °F 17.0 °F 19.9 °F 84% 30.21 in 8.0 mi NW 5.8 mph - 0.00 in Snow Light Snow
5:54 AM 23.0 °F 17.0 °F 18.0 °F 81% 30.22 in 9.0 mi Variable 4.6 mph - 0.00 in Snow Light Snow
6:54 AM 23.0 °F 14.7 °F 19.0 °F 85% 30.24 in 9.0 mi NNW 6.9 mph - 0.00 in   Overcast
7:15 AM 21.9 °F 13.4 °F 18.0 °F 85% 30.22 in 10.0 mi North 6.9 mph - N/A   Overcast
7:42 AM 21.0 °F 9.9 °F 16.0 °F 81% 30.24 in 8.0 mi NW 10.4 mph - N/A   Overcast
7:54 AM 21.0 °F 9.9 °F 16.0 °F 81% 30.28 in 8.0 mi NW 10.4 mph - N/A   Overcast
8:54 AM 19.9 °F 12.1 °F 14.0 °F 78% 30.30 in 9.0 mi WNW 5.8 mph - N/A   Mostly Cloudy
9:11 AM 19.9 °F 12.1 °F 14.0 °F 78% 30.27 in 9.0 mi NNW 5.8 mph - N/A   Mostly Cloudy
9:54 AM 21.9 °F - 15.1 °F 75% 30.30 in 9.0 mi Calm Calm - N/A   Mostly Cloudy
10:54 AM 23.0 °F 17.0 °F 15.1 °F 72% 30.32 in 9.0 mi NW 4.6 mph - N/A   Mostly Cloudy
11:23 AM 21.9 °F 14.5 °F 14.0 °F 72% 30.28 in 10.0 mi West 5.8 mph - N/A   Overcast
11:54 AM 23.0 °F 15.8 °F 15.1 °F 72% 30.31 in 8.0 mi NW 5.8 mph - N/A   Overcast
12:54 PM 25.0 °F 19.3 °F 12.0 °F 58% 30.29 in 10.0 mi West 4.6 mph - N/A   Mostly Cloudy
1:54 PM 26.1 °F 21.9 °F 14.0 °F 60% 30.27 in 10.0 mi Variable 3.5 mph - N/A   Mostly Cloudy
2:54 PM 26.1 °F - 12.9 °F 58% 30.27 in 10.0 mi Calm Calm - N/A   Mostly Cloudy
3:32 PM 27.0 °F 19.5 °F 14.0 °F 58% 30.23 in 10.0 mi NNW 6.9 mph - 0.00 in   Mostly Cloudy
3:54 PM 27.0 °F 21.6 °F 14.0 °F 58% 30.27 in 10.0 mi WNW 4.6 mph - 0.00 in   Mostly Cloudy
4:54 PM 27.0 °F 23.0 °F 14.0 °F 58% 30.29 in 10.0 mi Variable 3.5 mph - N/A   Scattered Clouds
5:54 PM 25.0 °F 18.1 °F 12.0 °F 58% 30.29 in 10.0 mi NNW 5.8 mph - N/A   Scattered Clouds
6:54 PM 24.1 °F 18.2 °F 12.0 °F 60% 30.31 in 10.0 mi NNW 4.6 mph - N/A   Partly Cloudy
7:54 PM 21.9 °F 15.7 °F 12.0 °F 66% 30.32 in 10.0 mi NNW 4.6 mph - N/A   Clear
8:54 PM 21.0 °F 16.2 °F 10.9 °F 65% 30.35 in 10.0 mi NNW 3.5 mph - N/A   Clear
9:54 PM 19.9 °F - 10.9 °F 68% 30.36 in 10.0 mi Calm Calm - N/A   Clear
10:54 PM 18.0 °F - 12.9 °F 81% 30.37 in 7.0 mi Calm Calm - N/A   Clear
11:54 PM 18.0 °F 12.7 °F 10.9 °F 74% 30.37 in 10.0 mi North 3.5 mph - N/A   Clear